Find Starlink 30116

NORAD ID: 57465 Int'l Des: 2023-107 Owner: SPXS Country: US Constellation: starlink operational
LEOCIRCULAR

Current View

Loading 3D Globe...

About Starlink 30116

Starlink 30116 (NORAD 57465) is a starlink constellation satellite (v2 mini) launched Jul 28, 2023 by SPXS of US. It operates in LEO, CIRCULAR orbit with a mass of 730.00 kg.

About Starlink 30116

Description loading...

Upcoming Passes

Passes for default location (London). Set your location on the main map for personalized predictions.

Altitude History

Loading altitude history...

Two-Line Element Set

1 57465U 23107J 26174.14501025 -.00000303 00000-0 -15042-5 0 9993
2 57465 43.0018 100.6765 0001277 268.8373 91.2333 15.27572369161279
Epoch: Jun 23, 2026 • Age: 46 hours

Current Status

Altitude 488.3 km
Velocity 7.62 km/s
Sub-Earth Point -23.43°S, 4.88°W
Launch Date Jul 28, 2023
Age 2.9 years
Type internet

Technical Details

Classification Payload
Mass 730.00 kg
Dry Mass 700.00 kg
Total Mass 730.00 kg
Length 0.30 m
Diameter 4.10 m
Span 29.00 m
Shape Box + pan
Manufacturer SPXS
Bus Type Starlink V2M
Phase Status In Orbit
Owner/State SPXS/US

Most Searched